Regional Weather Roundup
Issued by NWS

Home | Current Version | Previous Version | Graphics & Text | Print | Product List | Glossary On
Versions: 1 2 3 4 5 6 7 8 9 10 11 12 13 14 15 16 17 18 19 20 21 22 23 24 25 26 27 28 29 30 31 32 33 34 35 36 37 38 39 40 41 42 43 44 45 46 47 48 49 50
655
ASUS43 KOAX 250102
RWRNE

WEATHER ROUNDUP FOR NEBRASKA
NATIONAL WEATHER SERVICE OMAHA NE
800 PM CDT MON JUL 24 2017

NOTES: SATELLITE DATA IS BEING USED TO AUGMENT CLOUD COVER ABOVE
       12000 FEET.
       "FAIR" INDICATES FEW OR NO CLOUDS BELOW 12,000 FEET WITH NO
       SIGNIFICANT WEATHER AND/OR OBSTRUCTIONS TO VISIBILITY.


NEZ001>004-019>022-054>056-250200-
NEBRASKA PANHANDLE

CITY           SKY/WX    TMP DP  RH WIND       PRES   REMARKS
SCOTTSBLUFF    MOSUNNY   96  53  23 E3        29.87F HX  93
ALLIANCE       SUNNY     90  50  25 S24G30    29.88R
CHADRON        SUNNY    101  32   9 N6        29.80R HX  95
GORDON         FAIR      94  54  26 CALM      29.83S HX  91
KIMBALL        PTSUNNY   88  49  26 S8        29.98R
SIDNEY         PTSUNNY   78  58  49 SE21G29   29.97R
$$

NEZ057>060-069>072-079>082-250200-
SOUTHWEST NEBRASKA

CITY           SKY/WX    TMP DP  RH WIND       PRES   REMARKS
NORTH PLATTE   MOSUNNY   90  55  30 S12       29.89R
IMPERIAL       MOSUNNY   91  55  29 S16G22    29.93R
LEXINGTON      SUNNY     85  69  58 SE8       29.91S
MCCOOK         SUNNY     93  53  25 S12       29.91R HX  90
OGALLALA       CLOUDY    90  51  26 S15G23    29.91F
$$

NEZ005>010-023>029-035>040-094-250200-
NORTH CENTRAL NEBRASKA

CITY           SKY/WX    TMP DP  RH WIND       PRES   REMARKS
VALENTINE      PTSUNNY  100  47  16 SW29G37   29.74S HX  96
AINSWORTH      MOSUNNY   92  59  33 S26G33    29.78F HX  91
BROKEN BOW     SUNNY     89  64  43 S15G26    29.90R HX  90
O`NEILL        CLEAR     86  69  56 S16G22    29.87S HX  90
ORD            CLEAR     88  64  44 SE10G22   29.88S
$$

NEZ041-046>049-061>064-073>077-083>087-250200-
SOUTH CENTRAL NEBRASKA

CITY           SKY/WX    TMP DP  RH WIND       PRES   REMARKS
GRAND ISLAND   CLEAR     85  73  67 SE10      29.93S HX  91
AURORA         CLEAR     84  71  64 SE6       29.93S
HASTINGS       CLEAR     87  69  54 SE12      29.93S HX  91
HEBRON         CLEAR     88  67  50 SE7       29.92S HX  91
HOLDREGE       CLEAR     84  69  60 SE7       29.92R
KEARNEY        CLEAR     85  70  60 SE10      29.92S
YORK           CLEAR     84  73  70 SE9       29.93S HX  91
$$

NEZ011>018-030>034-042>045-250200-
NORTHEAST NEBRASKA

CITY           SKY/WX    TMP DP  RH WIND       PRES   REMARKS
NORFOLK        CLEAR     83  67  58 SE15      29.91F
ALBION         CLEAR     86  71  60 S10       29.92R HX  91
BLAIR          PTCLDY    81  67  62 SE7       29.96S
COLUMBUS       CLEAR     84  69  60 SE9       29.93F
FREMONT        CLEAR     82  65  56 SE12      29.95F
TEKAMAH        CLEAR     81  66  60 SE12      29.94F
WAYNE          CLEAR     81  69  67 S9        29.93S
$$

NEZ050>053-065>068-078-088>093-250200-
SOUTHEAST NEBRASKA

CITY           SKY/WX    TMP DP  RH WIND       PRES   REMARKS
LINCOLN        CLEAR     84  67  56 SE16      29.95R
OMAHA EPPLEY   PTCLDY    84  67  56 S13       29.96S
BEATRICE       CLEAR     87  70  57 E7        29.94R HX  92
FALLS CITY     CLEAR     80  70  71 E7        29.95S
NEBRASKA CITY  PTCLDY    79  70  74 SE6       29.97S
PLATTSMOUTH    CLEAR     79  68  69 E9        29.97S
$$

NEZ044-045-051>053-067-250200-
OMAHA AREA

CITY           SKY/WX    TMP DP  RH WIND       PRES   REMARKS
OMAHA EPPLEY   PTCLDY    84  67  56 S13       29.96S
BLAIR          PTCLDY    81  67  62 SE7       29.96S
FREMONT        CLEAR     82  65  56 SE12      29.95F
MILLARD        CLEAR     83  69  62 SE12      29.95F
OFFUTT AFB     CLEAR     81  68  63 E9        29.95F
PLATTSMOUTH    CLEAR     79  68  69 E9        29.97S
WAHOO          FAIR      80  67  63 SE8       29.95S
$$




USA.gov is the U.S. government's official web portal to all federal, state and local government web resources and services.